Total_Precipitation_Accumulation
0.00 0.00 0.00 0.00 0.00 0.00 0.00 0.00 0.00 0.00 0.00 0.00 0.01 0.05 0.08 0.11 0.13 0.15 0.17 0.17 0.17 0.15
0.00 0.00 0.00 0.00 0.00 0.00 0.00 0.00 0.00 0.00 0.00 0.01 0.04 0.10 0.15 0.21 0.22 0.22 0.24 0.23 0.17 0.17
0.00 0.00 0.00 0.00 0.00 0.00 0.00 0.00 0.00 0.00 0.01 0.02 0.10 0.16 0.22 0.26 0.25 0.24 0.22 0.26 0.22 0.17
0.00 0.00 0.00 0.00 0.00 0.00 0.00 0.00 0.00 0.00 0.02 0.09 0.16 0.19 0.26 0.29 0.30 0.25 0.23 0.24 0.28 0.22
0.00 0.00 0.00 0.00 0.00 0.00 0.00 0.00 0.00 0.01 0.05 0.10 0.12 0.18 0.30 0.38 0.35 0.28 0.25 0.27 0.30 0.25
0.00 0.00 0.00 0.00 0.00 0.00 0.00 0.00 0.00 0.01 0.07 0.11 0.16 0.22 0.31 0.40 0.35 0.26 0.33 0.35 0.40 0.27
0.00 0.00 0.00 0.00 0.00 0.00 0.00 0.00 0.01 0.04 0.09 0.16 0.20 0.31 0.36 0.28 0.29 0.35 0.41 0.38 0.31 0.18
0.00 0.00 0.00 0.00 0.00 0.00 0.00 0.00 0.01 0.02 0.09 0.19 0.37 0.51 0.52 0.44 0.38 0.43 0.37 0.26 0.18 0.14
0.00 0.00 0.00 0.00 0.00 0.00 0.00 0.00 0.01 0.04 0.06 0.17 0.49 0.62 0.67 0.68 0.61 0.57 0.49 0.40 0.31 0.27
0.00 0.00 0.00 0.00 0.00 0.00 0.01 0.01 0.03 0.08 0.13 0.22 0.47 0.43 0.53 0.67 0.73 0.80 0.80 0.64 0.48 0.35
0.00 0.00 0.00 0.00 0.00 0.00 0.01 0.02 0.07 0.14 0.23 0.31 0.59 0.49 0.41 0.49 0.53 0.55 0.62 0.66 0.58 0.48
0.00 0.00 0.00 0.00 0.00 0.00 0.00 0.00 0.02 0.09 0.13 0.21 0.44 0.58 0.47 0.35 0.31 0.32 0.42 0.50 0.58 0.51
0.00 0.00 0.00 0.00 0.00 0.00 0.02 0.04 0.02 0.05 0.15 0.15 0.17 0.30 0.34 0.23 0.21 0.23 0.27 0.32 0.51 0.71
0.00 0.00 0.00 0.00 0.00 0.00 0.01 0.03 0.05 0.06 0.08 0.14 0.13 0.12 0.15 0.18 0.20 0.22 0.17 0.26 0.52 0.78